Portada
METAR-TAF:

METAR-TAF

Aeroports :

Sullivan County International Airport

Monticello, Nova York, Estats Units d'Amèrica

latitud: 41-42N, longitud: 074-48W, altitud: 428 m

Observació

L'informe es va fer fa 1 hora i 0 minuts, a les 07:56 UTC
Vent 7 kt del Oest/Nord-Oest
Temperatura 11°C
Humitat 94%
Pressió 1010 hPa
Visibilitat: 16.1 km
Núvols disperses a una alçada de 2400 ft

METAR: KMSV 230756Z AUTO 29007KT 10SM SCT024 11/10 A2982 RMK AO2 SLP102 T01060100

Hora: 04:56 (08:56 UTC)


TAF: manca

Observacions i pronòstics meteorològics de més de 4000 aeroports (METAR i TAF).

Les estacions disponibles són els punts grocs i vermells al mapa.

Posi el ratolí al punt desitjat per veure el nom de l'estació.

Feu clic per veure les observacions i els pronòstics meteorològics.

Per canviar el mapa: feu clic els botons verds amb una creu de color negre per apropar; al botó verd amb un guió per allunyar la imatge; o en les fletxes verdes per a mapes adjacents.


METAR-TAF: